FENGYUN 1C DEB, 37907

Orbit data source: Space-Track

FENGYUN 1C DEB, 37907 is space debris in SSO originally from a launch on Mon, 10 May 1999 UTC launched from the Taiyaun Space Center, China (TSC). Fengyun 1C debris stems from the Chinese weather satellite Fengyun-1C, which was intentionally destroyed by a Chinese anti-satellite missile in 2007. This event dramatically increased the amount of space debris, with thousands of trackable fragments posing hazards to satellites and human spaceflight. The Fengyun 1C debris cloud has become a focal point in discussions about space sustainability and the need for international regulations to prevent the creation of new debris.

Loading next visibility...
Identifier
37907, 1999-025ENG
Orbit
SSO
Country
Flag of CNCN / PRC
Related business
Manufacturer
Unknown
Mission
Spacecraft
Bus & Motor
Unknown
Mass
Unknown
Launch date (UTC)
1999-05-10 (27 years ago)
Launch vehicle
Unknown
Launch site
Taiyaun Space Center, China (TSC)
Object type
Payload
Rocket body
Debris
Shape & HBR
Unknown shape, 0.1 m
Radar Cross Section
Small (<0.1 m²)

Expand to show TLE details & history
Last TLE update: 16 hours ago

TLE from 16 hours ago
0 FENGYUN 1C DEB
1 37907U 99025ENG 26121.13911453  .00006076  00000-0  25576-2 0  9996
2 37907  99.0839 243.7665 0061602 145.3395 215.1822 14.25099645852577
Epoch: 2026-05-01T03:20Z
TLE epoch observation values (Epoch: 2026-05-01T03:20:19.495Z)
Latitude
0.00004°
Longitude
-25.3904°
Altitude
847.346 km
Speed
7.41 km/s
True Right ascension
16h 15m 03s
True Declination
0° 00' 00"
Sunlit
Object was in full shadow at epoch
Visualization orbit readout
Latitude
Unknown
Longitude
Unknown
Altitude
Unknown
Speed
Unknown
Apparent Right ascension
Unknown
Apparent Declination
Unknown
Sunlit
N/A
Visualization observer readout
Local Sidereal Time
02:48:01
Azimuth
Unknown
Elevation
Unknown
Doppler factor
Unknown
Orbital elements
Apogee altitude
849.579 km
Perigee altitude
761.076 km
Semi-major axis
7,183.465 km
Eccentricity
0.00616
Inclination
99.0839°
RAAN
243.7665°
Arg. of periapsis
145.3395°
True anomaly
214.77802°
Mean anomaly
215.1822°
Eccentric anomaly
214.97986°
Mean motion
3.56486 °/min
Orbital period
100.99 mins
BSTAR
0.0025576
Loading maneuver chart data...
Computing Atmospheric mass density...
Loading historical data...
Loading historical data...
Loading historical data...
Loading historical data...
Loading historical data...
Loading historical data...
Loading historical data...

Documentation

Showing up to 5 results
|